Weather History for KSAC - March, 2013

Change the Weather History Date:

Wednesday, March 6, 2013

  Actual Average Record
Temperature  
Mean Temperature 54 °F -  
Max Temperature 58 °F 64 °F 78 °F (1972)
Min Temperature 49 °F 44 °F 31 °F (1971)
Degree Days  
Heating Degree Days 11    
Cooling Degree Days 0    
Growing Degree Days 2 (Base 50)    
Moisture  
Dew Point 40 °F    
Average Humidity 60    
Maximum Humidity 80    
Minimum Humidity 40    
Precipitation  
Precipitation 0.12 in 0.10 in 1.68 in (1952)
Month to date precipitation 0.23 0.67  
Year to date precipitation 1.55 7.78  
Since 1 July precipitation 12.84  
Sea Level Pressure  
Sea Level Pressure 29.98 in    
Wind  
Wind Speed 9 mph (SSW)    
Max Wind Speed 32 mph    
Max Gust Speed 105 mph    
Visibility 10 miles    
Events Rain    
T = Trace of Precipitation, MM = Missing Value Source: NWS Daily Summary

Daily Weather History Graph

Daily Weather History Graph

Search for Another Location

Airport or City:

Trip Planner

Search our weather history database for the weather conditions in past years. The results will help you decide how hot, cold, wet, or windy it might be!

Date:

Astronomy

Mar. 06, 2013 Rise Set
Actual Time 6:30 AM PST 6:04 PM PST
Civil Twilight 6:03 AM PST 6:31 PM PST
Nautical Twilight 5:33 AM PST 7:01 PM PST
Astronomical Twilight 5:02 AM PST 7:32 PM PST
Moon 2:41 AM PST (3/6) 12:55 PM PST (3/6)
Length of Visible Light 12h 27m
Length of Day
11h 34m
Waning Crescent, 29% of the Moon is Illuminated
Mar 6
Waning Crescent
Mar 11
New
Mar 19
First Quarter
Mar 27
Full
Apr 2
Last Quarter

Hourly Weather History & Observations

Time (PST) Temp. Dew Point Humidity Pressure Visibility Wind Dir Wind Speed Gust Speed Precip Events Conditions
12:53 AM 50.0 °F 42.1 °F 74% 29.86 in 10.0 mi SE 9.2 mph - 0.00 in Rain Light Rain
1:53 AM 51.1 °F 41.0 °F 68% 29.87 in 10.0 mi SSE 11.5 mph 18.4 mph 0.00 in   Overcast
2:20 AM 50.0 °F 41.0 °F 71% 29.86 in 10.0 mi SSE 10.4 mph 110.5 mph 0.00 in   Squalls
2:53 AM 48.9 °F 42.1 °F 77% 29.87 in 7.0 mi South 5.8 mph 16.1 mph 0.01 in Rain Light Rain
3:27 AM 48.2 °F 42.8 °F 82% 29.89 in 4.0 mi SW 11.5 mph 17.3 mph 0.05 in Rain Rain
3:44 AM 48.2 °F 44.6 °F 87% 29.88 in 8.0 mi South 11.5 mph 21.9 mph 0.11 in Rain Light Rain
3:53 AM 48.9 °F 43.0 °F 80% 29.88 in 10.0 mi SSW 12.7 mph 19.6 mph 0.11 in Rain Light Rain
4:53 AM 50.0 °F 44.1 °F 80% 29.91 in 9.0 mi South 11.5 mph 18.4 mph 0.00 in Rain Light Rain
5:53 AM 48.9 °F 44.1 °F 83% 29.93 in 10.0 mi South 5.8 mph - 0.00 in   Mostly Cloudy
6:08 AM 48.2 °F 44.6 °F 87% 29.94 in 10.0 mi SSE 6.9 mph - N/A   Mostly Cloudy
6:53 AM 48.9 °F 42.1 °F 77% 29.96 in 10.0 mi SSW 9.2 mph - N/A   Mostly Cloudy
7:53 AM 50.0 °F 42.1 °F 74% 29.99 in 10.0 mi SSW 9.2 mph - N/A   Mostly Cloudy
8:53 AM 52.0 °F 42.1 °F 69% 30.03 in 10.0 mi South 6.9 mph - N/A   Mostly Cloudy
9:53 AM 53.1 °F 41.0 °F 64% 30.04 in 10.0 mi SSW 11.5 mph 17.3 mph N/A   Mostly Cloudy
10:53 AM 55.0 °F 41.0 °F 59% 30.07 in 10.0 mi South 12.7 mph 23.0 mph N/A   Mostly Cloudy
11:53 AM 55.0 °F 37.9 °F 53% 30.07 in 10.0 mi South 10.4 mph 20.7 mph N/A   Overcast
12:53 PM 57.0 °F 39.0 °F 51% 30.06 in 10.0 mi South 11.5 mph 20.7 mph N/A   Partly Cloudy
1:53 PM 57.2 °F 35.6 °F 44% 30.05 in 10.0 mi SW 9.2 mph 16.1 mph N/A   Partly Cloudy
2:53 PM 57.0 °F 34.0 °F 42% 30.04 in 10.0 mi SW 13.8 mph 19.6 mph N/A   Clear
3:53 PM 57.0 °F 34.0 °F 42% 30.04 in 10.0 mi SW 11.5 mph - N/A   Clear
4:53 PM 55.0 °F 35.1 °F 47% 30.04 in 10.0 mi SW 8.1 mph - N/A   Clear
5:53 PM 53.1 °F 34.0 °F 48% 30.04 in 10.0 mi SW 6.9 mph - N/A   Clear
6:53 PM 51.1 °F 35.1 °F 54% 30.02 in 10.0 mi WSW 3.5 mph - N/A   Clear
7:53 PM 46.9 °F 37.0 °F 68% 30.03 in 10.0 mi SW 4.6 mph - N/A   Clear
8:53 PM 46.9 °F 37.0 °F 68% 30.03 in 10.0 mi WSW 4.6 mph - N/A   Clear
9:53 PM 46.9 °F 37.0 °F 68% 30.02 in 10.0 mi West 4.6 mph - N/A   Scattered Clouds
10:53 PM 46.9 °F 37.0 °F 68% 30.02 in 10.0 mi Calm Calm - N/A   Overcast
11:53 PM 46.9 °F 37.9 °F 71% 30.01 in 10.0 mi Calm Calm - N/A   Overcast